Location: Lynchburg College Observatory
(37.3822°N, 79.5391°W)
Time: 15:45:16
(UTC-05:00)

Tiangong 2 - Visible Passes

Search period start: 20 January 2018 00:00
Search period end: 30 January 2018 00:00
Orbit: 384 x 390 km, 42.8° (Epoch: 20 January)

Date Brightness Start Highest point End Pass type
(mag) Time Alt. Az. Time Alt. Az. Time Alt. Az.
20 Jan 4.7 04:52:38 10° ENE 04:52:38 10° ENE 04:52:39 10° ENE visible
20 Jan 1.6 06:24:55 24° WNW 06:26:27 43° NNW 06:29:31 10° ENE visible
21 Jan 3.0 05:29:09 28° NE 05:29:09 28° NE 05:30:51 10° ENE visible
21 Jan 2.3 07:01:55 10° WNW 07:04:47 29° N 07:07:40 10° ENE visible
22 Jan 2.0 06:05:34 32° NNW 06:05:55 33° N 06:08:52 10° ENE visible
23 Jan 4.1 05:09:37 14° NE 05:09:37 14° NE 05:10:09 10° ENE visible
23 Jan 2.4 06:41:53 13° WNW 06:44:18 29° N 06:47:10 10° ENE visible
24 Jan 2.6 05:45:54 28° NNE 05:45:54 28° NNE 05:48:16 10° ENE visible
25 Jan 2.2 06:22:08 20° NW 06:23:46 33° N 06:26:43 10° ENE visible
26 Jan 3.3 05:26:07 22° NE 05:26:07 22° NE 05:27:44 10° ENE visible
27 Jan 1.8 06:02:21 34° NNW 06:03:11 43° NNE 06:06:15 10° E visible
28 Jan 4.0 05:06:21 16° ENE 05:06:21 16° ENE 05:07:16 10° ENE visible
28 Jan 1.1 06:38:37 14° WNW 06:41:17 73° SSW 06:44:27 10° ESE visible
29 Jan 1.3 05:42:39 65° NE 05:42:39 65° NE 05:45:41 10° ESE visible
